Location: La Sioule Rivi�re
(46.3664°N, 3.3197°E)
Time: 12:38:45
(UTC+00:00)

Okean O Rocket - Pass Details

Date: 29 October 2020
Orbit: 622 x 645 km, 98.2° (Epoch: 23 November)

Event Time Altitude Azimuth Distance (km) Brightness Sun altitude
Rises 17:21:35 0° 173° (S) 2,906 5.1 -8.4°
Reaches altitude 10° 17:23:48 10° 177° (S) 2,000 4.3 -8.8°
Maximum altitude 17:28:06 62° 258° (WSW) 706 2.2 -9.5°
Drops below altitude 10° 17:32:26 10° 340° (NNW) 2,007 4.3 -10.3°
Sets 17:34:39 0° 344° (NNW) 2,917 5.1 -10.6°
